Time,TemperatureF,DewpointF,PressureIn,WindDirection,WindDirectionDegrees,WindSpeedMPH,WindSpeedGustMPH,Humidity,HourlyPrecipIn,Conditions,Clouds,dailyrainin,SoftwareType,DateUTC
2013-11-19 00:10:00,29.7,20.0,29.93,WSW,256,5.0,6.0,68,0.00,,,0.00,weatherlink.com 1.10,2013-11-19 07:10:00,
2013-11-19 00:25:00,30.5,20.0,29.92,West,262,8.0,9.0,66,0.00,,,0.00,weatherlink.com 1.10,2013-11-19 07:25:00,
2013-11-19 00:40:00,29.0,20.0,29.91,WSW,249,7.0,8.0,69,0.00,,,0.00,weatherlink.com 1.10,2013-11-19 07:40:00,
2013-11-19 00:55:00,29.2,20.0,29.91,WSW,239,6.0,7.0,69,0.00,,,0.00,weatherlink.com 1.10,2013-11-19 07:55:00,
2013-11-19 01:10:00,28.7,20.0,29.90,WSW,246,6.0,7.0,70,0.00,,,0.00,weatherlink.com 1.10,2013-11-19 08:10:00,
2013-11-19 01:25:00,28.5,20.0,29.89,WSW,242,8.0,8.0,70,0.00,,,0.00,weatherlink.com 1.10,2013-11-19 08:25:00,
2013-11-19 01:40:00,28.0,20.0,29.89,West,259,7.0,8.0,71,0.00,,,0.00,weatherlink.com 1.10,2013-11-19 08:40:00,
2013-11-19 01:55:00,28.1,20.0,29.88,WSW,253,8.0,9.0,73,0.00,,,0.00,weatherlink.com 1.10,2013-11-19 08:55:00,
2013-11-19 02:10:00,28.6,20.0,29.87,West,259,7.0,8.0,71,0.00,,,0.00,weatherlink.com 1.10,2013-11-19 09:10:00,
2013-11-19 02:25:00,29.3,20.0,29.86,WSW,245,8.0,9.0,69,0.00,,,0.00,weatherlink.com 1.10,2013-11-19 09:25:00,
2013-11-19 02:40:00,28.8,20.0,29.85,WSW,243,6.0,9.0,70,0.00,,,0.00,weatherlink.com 1.10,2013-11-19 09:40:00,
2013-11-19 02:55:00,28.2,20.0,29.84,WSW,246,9.0,9.0,71,0.00,,,0.00,weatherlink.com 1.10,2013-11-19 09:55:00,
2013-11-19 03:10:00,27.8,20.0,29.84,WSW,246,9.0,9.0,72,0.00,,,0.00,weatherlink.com 1.10,2013-11-19 10:10:00,
2013-11-19 03:25:00,28.4,20.0,29.82,WSW,250,8.0,9.0,70,0.00,,,0.00,weatherlink.com 1.10,2013-11-19 10:25:00,
2013-11-19 03:40:00,27.3,20.0,29.82,WSW,249,9.0,9.0,73,0.00,,,0.00,weatherlink.com 1.10,2013-11-19 10:40:00,
2013-11-19 03:55:00,26.6,20.0,29.82,West,263,7.0,9.0,75,0.00,,,0.00,weatherlink.com 1.10,2013-11-19 10:55:00,
2013-11-19 04:10:00,27.2,20.0,29.81,WSW,251,7.0,9.0,73,0.00,,,0.00,weatherlink.com 1.10,2013-11-19 11:10:00,
2013-11-19 04:25:00,26.3,19.0,29.81,WSW,255,8.0,8.0,75,0.00,,,0.00,weatherlink.com 1.10,2013-11-19 11:25:00,
2013-11-19 04:40:00,26.5,20.0,29.80,WSW,256,8.0,10.0,75,0.00,,,0.00,weatherlink.com 1.10,2013-11-19 11:40:00,
2013-11-19 04:55:00,26.9,20.0,29.80,WSW,239,10.0,11.0,74,0.00,,,0.00,weatherlink.com 1.10,2013-11-19 11:55:00,
2013-11-19 05:10:00,28.5,20.0,29.79,WSW,251,8.0,10.0,70,0.00,,,0.00,weatherlink.com 1.10,2013-11-19 12:10:00,
2013-11-19 05:26:00,27.5,20.0,29.78,WSW,242,9.0,9.0,72,0.00,,,0.00,weatherlink.com 1.10,2013-11-19 12:26:00,
2013-11-19 05:41:00,27.4,19.0,29.77,WSW,242,8.0,9.0,72,0.00,,,0.00,weatherlink.com 1.10,2013-11-19 12:41:00,
2013-11-19 05:56:00,28.6,20.0,29.76,WSW,252,8.0,10.0,69,0.00,,,0.00,weatherlink.com 1.10,2013-11-19 12:56:00,
2013-11-19 06:11:00,27.5,19.0,29.76,WSW,243,8.0,9.0,71,0.00,,,0.00,weatherlink.com 1.10,2013-11-19 13:11:00,
2013-11-19 06:26:00,27.6,20.0,29.75,WSW,248,11.0,12.0,72,0.00,,,0.00,weatherlink.com 1.10,2013-11-19 13:26:00,
2013-11-19 06:41:00,29.6,20.0,29.75,WSW,242,9.0,10.0,67,0.00,,,0.00,weatherlink.com 1.10,2013-11-19 13:41:00,
2013-11-19 06:56:00,31.5,20.0,29.74,SW,234,11.0,12.0,62,0.00,,,0.00,weatherlink.com 1.10,2013-11-19 13:56:00,
2013-11-19 07:11:00,33.0,20.0,29.74,WSW,238,7.0,10.0,59,0.00,,,0.00,weatherlink.com 1.10,2013-11-19 14:11:00,
2013-11-19 07:26:00,34.0,20.0,29.73,WSW,248,9.0,12.0,57,0.00,,,0.00,weatherlink.com 1.10,2013-11-19 14:26:00,
2013-11-19 07:41:00,34.3,21.0,29.73,WSW,248,9.0,10.0,58,0.00,,,0.00,weatherlink.com 1.10,2013-11-19 14:41:00,
2013-11-19 07:56:00,34.8,21.0,29.72,WSW,257,7.0,8.0,58,0.00,,,0.00,weatherlink.com 1.10,2013-11-19 14:56:00,
2013-11-19 08:11:00,37.3,22.0,29.72,WSW,249,10.0,13.0,54,0.00,,,0.00,weatherlink.com 1.10,2013-11-19 15:11:00,
2013-11-19 08:26:00,39.3,22.0,29.72,WSW,256,8.0,14.0,50,0.00,,,0.00,weatherlink.com 1.10,2013-11-19 15:26:00,
2013-11-19 08:41:00,39.3,23.0,29.71,WSW,253,12.0,12.0,52,0.00,,,0.00,weatherlink.com 1.10,2013-11-19 15:41:00,
2013-11-19 08:56:00,42.1,24.0,29.71,SW,236,10.0,15.0,48,0.00,,,0.00,weatherlink.com 1.10,2013-11-19 15:56:00,
2013-11-19 09:11:00,46.0,23.0,29.70,WSW,250,11.0,12.0,41,0.00,,,0.00,weatherlink.com 1.10,2013-11-19 16:11:00,
2013-11-19 09:26:00,49.7,24.0,29.70,West,278,12.0,12.0,36,0.00,,,0.00,weatherlink.com 1.10,2013-11-19 16:26:00,
2013-11-19 09:41:00,52.8,24.0,29.69,NW,307,9.0,17.0,32,0.00,,,0.00,weatherlink.com 1.10,2013-11-19 16:41:00,
2013-11-19 09:57:00,55.1,22.0,29.69,West,270,7.0,17.0,28,0.00,,,0.00,weatherlink.com 1.10,2013-11-19 16:57:00,
2013-11-19 10:12:00,56.9,21.0,29.69,West,274,10.0,16.0,25,0.00,,,0.00,weatherlink.com 1.10,2013-11-19 17:12:00,
2013-11-19 10:27:00,57.5,21.0,29.68,West,264,12.0,16.0,24,0.00,,,0.00,weatherlink.com 1.10,2013-11-19 17:27:00,
2013-11-19 10:42:00,56.7,21.0,29.67,WSW,258,12.0,18.0,25,0.00,,,0.00,weatherlink.com 1.10,2013-11-19 17:42:00,
2013-11-19 10:57:00,57.4,21.0,29.66,West,276,17.0,18.0,24,0.00,,,0.00,weatherlink.com 1.10,2013-11-19 17:57:00,
2013-11-19 11:12:00,57.4,21.0,29.65,West,281,14.0,17.0,24,0.00,,,0.00,weatherlink.com 1.10,2013-11-19 18:12:00,
2013-11-19 11:27:00,58.0,22.0,29.65,NW,312,10.0,14.0,25,0.00,,,0.00,weatherlink.com 1.10,2013-11-19 18:27:00,
2013-11-19 11:42:00,58.3,22.0,29.64,NNW,333,9.0,17.0,25,0.00,,,0.00,weatherlink.com 1.10,2013-11-19 18:42:00,
2013-11-19 11:57:00,59.6,22.0,29.63,NW,308,13.0,17.0,23,0.00,,,0.00,weatherlink.com 1.10,2013-11-19 18:57:00,
2013-11-19 12:12:00,59.4,21.0,29.62,NW,304,8.0,19.0,23,0.00,,,0.00,weatherlink.com 1.10,2013-11-19 19:12:00,
2013-11-19 12:27:00,59.5,21.0,29.61,WNW,294,9.0,18.0,23,0.00,,,0.00,weatherlink.com 1.10,2013-11-19 19:27:00,
2013-11-19 12:42:00,59.5,22.0,29.60,NW,322,8.0,15.0,24,0.00,,,0.00,weatherlink.com 1.10,2013-11-19 19:42:00,
2013-11-19 12:57:00,59.3,22.0,29.60,NNW,329,6.0,10.0,24,0.00,,,0.00,weatherlink.com 1.10,2013-11-19 19:57:00,
2013-11-19 13:12:00,59.2,23.0,29.59,NW,319,9.0,12.0,25,0.00,,,0.00,weatherlink.com 1.10,2013-11-19 20:12:00,
2013-11-19 13:27:00,59.5,24.0,29.59,NW,311,7.0,12.0,26,0.00,,,0.00,weatherlink.com 1.10,2013-11-19 20:27:00,
2013-11-19 13:42:00,60.5,25.0,29.58,NW,307,8.0,10.0,26,0.00,,,0.00,weatherlink.com 1.10,2013-11-19 20:42:00,
2013-11-19 13:57:00,62.9,25.0,29.58,NW,317,17.0,21.0,24,0.00,,,0.00,weatherlink.com 1.10,2013-11-19 20:57:00,
2013-11-19 14:12:00,62.4,26.0,29.58,NW,317,14.0,19.0,25,0.00,,,0.00,weatherlink.com 1.10,2013-11-19 21:12:00,
2013-11-19 14:27:00,61.8,26.0,29.58,NW,319,15.0,23.0,26,0.00,,,0.00,weatherlink.com 1.10,2013-11-19 21:27:00,
2013-11-19 14:42:00,62.3,27.0,29.58,NW,324,11.0,21.0,26,0.00,,,0.00,weatherlink.com 1.10,2013-11-19 21:42:00,
2013-11-19 14:57:00,60.5,27.0,29.58,NNW,334,14.0,17.0,28,0.00,,,0.00,weatherlink.com 1.10,2013-11-19 21:57:00,
2013-11-19 15:12:00,58.7,27.0,29.58,NNW,332,6.0,8.0,30,0.00,,,0.00,weatherlink.com 1.10,2013-11-19 22:12:00,
2013-11-19 15:27:00,56.9,28.0,29.58,NNW,332,3.0,6.0,33,0.00,,,0.00,weatherlink.com 1.10,2013-11-19 22:27:00,
2013-11-19 15:42:00,55.7,28.0,29.58,NW,314,5.0,5.0,35,0.00,,,0.00,weatherlink.com 1.10,2013-11-19 22:42:00,
2013-11-19 15:57:00,53.2,28.0,29.59,NW,307,4.0,5.0,38,0.00,,,0.00,weatherlink.com 1.10,2013-11-19 22:57:00,
2013-11-19 16:12:00,52.2,27.0,29.59,WNW,285,2.0,4.0,38,0.00,,,0.00,weatherlink.com 1.10,2013-11-19 23:12:00,
2013-11-19 16:27:00,50.6,27.0,29.59,WNW,284,2.0,4.0,41,0.00,,,0.00,weatherlink.com 1.10,2013-11-19 23:27:00,
2013-11-19 16:42:00,50.8,27.0,29.59,WNW,293,1.0,2.0,40,0.00,,,0.00,weatherlink.com 1.10,2013-11-19 23:42:00,
2013-11-19 16:57:00,50.2,27.0,29.60,NW,307,2.0,4.0,41,0.00,,,0.00,weatherlink.com 1.10,2013-11-19 23:57:00,
2013-11-19 17:12:00,48.8,28.0,29.61,NW,307,4.0,5.0,44,0.00,,,0.00,weatherlink.com 1.10,2013-11-20 00:12:00,
2013-11-19 17:27:00,48.5,27.0,29.61,NW,308,5.0,6.0,44,0.00,,,0.00,weatherlink.com 1.10,2013-11-20 00:27:00,
2013-11-19 17:42:00,46.4,28.0,29.61,NW,318,5.0,7.0,49,0.00,,,0.00,weatherlink.com 1.10,2013-11-20 00:42:00,
2013-11-19 17:57:00,44.7,28.0,29.61,NW,304,3.0,6.0,52,0.00,,,0.00,weatherlink.com 1.10,2013-11-20 00:57:00,
2013-11-19 18:12:00,43.2,27.0,29.61,WSW,256,5.0,5.0,54,0.00,,,0.00,weatherlink.com 1.10,2013-11-20 01:12:00,
2013-11-19 18:27:00,40.9,27.0,29.61,West,259,4.0,5.0,59,0.00,,,0.00,weatherlink.com 1.10,2013-11-20 01:27:00,
2013-11-19 18:42:00,39.8,27.0,29.62,WNW,293,2.0,4.0,61,0.00,,,0.00,weatherlink.com 1.10,2013-11-20 01:42:00,
2013-11-19 18:57:00,38.7,27.0,29.62,WNW,302,1.0,3.0,63,0.00,,,0.00,weatherlink.com 1.10,2013-11-20 01:57:00,
2013-11-19 19:12:00,39.3,28.0,29.62,NW,310,4.0,4.0,63,0.00,,,0.00,weatherlink.com 1.10,2013-11-20 02:12:00,
2013-11-19 19:42:00,39.2,27.0,29.62,West,277,3.0,4.0,63,0.00,,,0.00,weatherlink.com 1.10,2013-11-20 02:42:00,
2013-11-19 19:58:00,40.3,28.0,29.62,WNW,294,3.0,4.0,62,0.00,,,0.00,weatherlink.com 1.10,2013-11-20 02:58:00,
2013-11-19 20:13:00,41.7,29.0,29.62,NW,307,5.0,6.0,60,0.00,,,0.00,weatherlink.com 1.10,2013-11-20 03:13:00,
2013-11-19 20:28:00,42.5,30.0,29.62,WNW,297,6.0,9.0,61,0.00,,,0.00,weatherlink.com 1.10,2013-11-20 03:28:00,
2013-11-19 20:43:00,44.5,30.0,29.62,NW,314,6.0,9.0,58,0.00,,,0.00,weatherlink.com 1.10,2013-11-20 03:43:00,
2013-11-19 20:59:00,43.6,30.0,29.63,WNW,283,7.0,8.0,59,0.00,,,0.00,weatherlink.com 1.10,2013-11-20 03:59:00,
2013-11-19 21:13:00,42.9,30.0,29.63,West,261,6.0,9.0,60,0.00,,,0.00,weatherlink.com 1.10,2013-11-20 04:13:00,
2013-11-19 21:28:00,43.2,30.0,29.63,NW,312,7.0,10.0,61,0.00,,,0.00,weatherlink.com 1.10,2013-11-20 04:28:00,
2013-11-19 21:43:00,43.3,30.0,29.63,NW,309,6.0,8.0,61,0.00,,,0.00,weatherlink.com 1.10,2013-11-20 04:43:00,
2013-11-19 21:58:00,44.5,31.0,29.63,NW,314,9.0,12.0,59,0.00,,,0.00,weatherlink.com 1.10,2013-11-20 04:58:00,
2013-11-19 22:13:00,45.6,31.0,29.63,NW,309,8.0,13.0,57,0.00,,,0.00,weatherlink.com 1.10,2013-11-20 05:13:00,
2013-11-19 22:28:00,45.8,31.0,29.63,NW,314,7.0,11.0,57,0.00,,,0.00,weatherlink.com 1.10,2013-11-20 05:28:00,
2013-11-19 22:43:00,45.4,31.0,29.62,NW,308,9.0,11.0,58,0.00,,,0.00,weatherlink.com 1.10,2013-11-20 05:43:00,
2013-11-19 22:58:00,45.8,31.0,29.62,WNW,301,9.0,12.0,57,0.00,,,0.00,weatherlink.com 1.10,2013-11-20 05:58:00,
2013-11-19 23:13:00,46.2,31.0,29.62,NW,323,7.0,11.0,56,0.00,,,0.00,weatherlink.com 1.10,2013-11-20 06:13:00,
2013-11-19 23:28:00,45.8,31.0,29.62,NW,309,6.0,9.0,56,0.00,,,0.00,weatherlink.com 1.10,2013-11-20 06:28:00,
2013-11-19 23:43:00,46.0,31.0,29.62,NW,314,8.0,12.0,56,0.00,,,0.00,weatherlink.com 1.10,2013-11-20 06:43:00,
2013-11-19 23:58:00,45.9,31.0,29.63,NW,314,9.0,13.0,56,0.00,,,0.00,weatherlink.com 1.10,2013-11-20 06:58:00,